Location: Newark
(39.6867°N, 100.6772°W)
Time: 21:35:14
(UTC+00:00)

SR - All Passes

Search period start: 18 October 2019 00:00
Search period end: 28 October 2019 00:00
Orbit: 575 x 881 km, 66.7° (Epoch: 17 October)

Date Brightness Start Highest point End Pass type
(mag) Time Alt. Az. Time Alt. Az. Time Alt. Az.
18 Oct - 05:00:39 10° SSW 05:05:28 74° ESE 05:10:49 10° NNE night (unlit)
18 Oct - 06:44:49 10° W 06:48:15 18° NW 06:51:53 10° N night (unlit)
18 Oct - 12:02:42 10° NNE 12:04:13 11° NE 12:05:42 10° NE visible
18 Oct - 13:42:00 10° NNW 13:47:44 50° NE 13:53:26 10° SE daylight
18 Oct - 15:24:43 10° NW 15:29:34 27° WSW 15:34:20 10° SSW daylight
19 Oct - 04:11:40 10° S 04:16:02 35° ESE 04:20:48 10° NE night (unlit)
19 Oct - 05:53:43 10° WSW 05:58:08 31° NW 06:02:55 10° NNE night (unlit)
19 Oct - 12:52:43 10° N 12:57:47 29° NE 13:02:49 10° ESE daylight
19 Oct - 14:34:27 10° NW 14:40:10 51° WSW 14:45:48 10° S daylight
20 Oct - 03:23:45 10° SE 03:26:48 17° ESE 03:30:00 10° ENE night (unlit)
20 Oct - 05:03:22 10° SW 05:08:13 59° WNW 05:13:35 10° NNE night (unlit)
20 Oct - 06:50:06 10° NW 06:51:37 11° NW 06:53:11 10° NNW night (unlit)
20 Oct - 12:03:48 10° N 12:07:37 17° NE 12:11:26 10° E visible
20 Oct - 13:44:38 10° NNW 13:50:36 85° ENE 13:56:28 10° SSE daylight
20 Oct - 15:29:01 10° WNW 15:31:55 14° WSW 15:34:49 10° SW daylight
21 Oct - 04:13:44 10° SSW 04:18:33 70° ESE 04:23:55 10° NNE night (unlit)
21 Oct - 05:57:42 10° W 06:01:18 19° NW 06:05:07 10° N night (unlit)
21 Oct - 11:16:12 10° NNE 11:17:14 10° NE 11:18:16 10° NE visible
21 Oct - 12:55:07 10° NNW 13:00:50 47° NE 13:06:29 10° SE daylight
21 Oct - 14:37:45 10° NW 14:42:42 28° WSW 14:47:34 10° SSW daylight
22 Oct - 03:24:49 10° S 03:29:08 33° ESE 03:33:51 10° NE night (unlit)
22 Oct - 05:06:40 10° WSW 05:11:11 33° NW 05:16:05 10° NNE night (unlit)
22 Oct - 12:05:52 10° N 12:10:51 27° NE 12:15:49 10° ESE visible
22 Oct - 13:47:31 10° NW 13:53:18 54° WSW 13:58:57 10° S daylight
23 Oct - 02:37:03 10° SE 02:39:56 16° ESE 02:42:57 10° ENE night (unlit)
23 Oct - 04:16:25 10° SW 04:21:18 62° WNW 04:26:42 10° NNE night (unlit)
23 Oct - 06:02:44 10° WNW 06:04:39 12° NW 06:06:36 10° NNW night (unlit)
23 Oct - 11:17:00 10° N 11:20:40 17° NE 11:24:19 10° E visible
23 Oct - 12:57:44 10° NNW 13:03:42 81° ENE 13:09:33 10° SSE daylight
23 Oct - 14:41:53 10° WNW 14:45:04 15° WSW 14:48:13 10° SW daylight
24 Oct - 03:26:48 10° SSW 03:31:39 65° ESE 03:37:01 10° NE night (unlit)
24 Oct - 05:10:35 10° W 05:14:19 20° NW 05:18:18 10° N night (unlit)
24 Oct - 12:08:14 10° NNW 12:13:55 45° NE 12:19:31 10° SE visible
24 Oct - 13:50:47 10° NW 13:55:50 30° WSW 14:00:47 10° SSW daylight
25 Oct - 02:37:58 10° S 02:42:15 31° ESE 02:46:54 10° NE night (unlit)
25 Oct - 04:19:38 10° WSW 04:24:14 35° NW 04:29:14 10° NNE night (unlit)
25 Oct - 11:19:01 10° N 11:23:55 26° NE 11:28:47 10° ESE visible
25 Oct - 13:00:36 10° NW 13:06:25 57° WSW 13:12:05 10° S daylight
26 Oct - 01:50:22 10° SE 01:53:04 15° ESE 01:55:52 10° ENE night (unlit)
26 Oct - 03:29:26 10° SW 03:34:22 67° WNW 03:39:50 10° NNE night (unlit)
26 Oct - 05:15:26 10° WNW 05:17:40 12° NW 05:19:57 10° NNW night (unlit)
26 Oct - 10:30:11 10° N 10:33:42 16° NE 10:37:13 10° ENE visible
26 Oct - 12:10:50 10° NNW 12:16:48 77° ENE 12:22:39 10° SSE visible
26 Oct - 13:54:46 10° WNW 13:58:13 16° WSW 14:01:36 10° SW daylight
27 Oct - 02:39:54 10° SSW 02:44:45 61° ESE 02:50:06 10° NE night (unlit)
27 Oct - 04:23:29 10° W 04:27:22 21° NW 04:31:30 10° N night (unlit)
27 Oct - 11:21:21 10° NNW 11:27:00 42° NE 11:32:32 10° SE visible
27 Oct - 13:03:49 10° NW 13:08:58 31° WSW 13:14:00 10° S daylight
